Skip Page Navigation
NASA JPL Caltech
NASA Logo - Jet Propulsion Laboratory + View the NASA Portal
+ Center for Near-Earth Object Studies
JPL Home Earth Solar System Stars & Galaxies Technology
JPL Solar System Dynamics
BODIES ORBITS EPHEMERIDES TOOLS PHYSICAL DATA DISCOVERY FAQ SITE MAP
JPL Small-Body Database Browser
Search: [ help ]  
410803 (2009 JP3)
Classification: Main-belt Asteroid          SPK-ID: 2410803
Ephemeris | Orbit Diagram | Orbital Elements | Mission Design | Physical Parameters | Discovery Circumstances ]

[ show orbit diagram ]
Orbital Elements at Epoch 2459000.5 (2020-May-31.0) TDB
Reference: JPL 17 (heliocentric ecliptic J2000)
 Element Value Uncertainty (1-sigma)   Units 
e .07290584681656817 4.4254e-08  
a 2.388545645091168 2.0313e-08 au
q 2.21440670217577 1.0673e-07 au
i 7.616751615557412 3.972e-06 deg
node 134.2198428968412 4.2149e-05 deg
peri 118.7579059262519 5.9663e-05 deg
M 337.5705461453008 3.9159e-05 deg
tp 2459084.506896863039
(2020-Aug-23.00689686)
0.00014621 TDB
period 1348.337907227193
3.69
1.72e-05
4.709e-08
d
yr
n .2669953860010705 3.4058e-09 deg/d
Q 2.562684588006566 2.1793e-08 au
  Orbit Determination Parameters
   # obs. used (total)      199  
   data-arc span      4096 days (11.21 yr)  
   first obs. used      2009-03-31  
   last obs. used      2020-06-17  
   planetary ephem.      DE431  
   SB-pert. ephem.      SB431-N16  
   condition code      0  
   norm. resid. RMS      .53658  
   source      ORB  
   producer      Otto Matic  
   solution date      2020-Nov-12 13:49:13  

Additional Information
 Earth MOID = 1.211 au 
 Jupiter MOID = 2.48075 au 
 T_jup = 3.518 
[ show covariance matrix ]

Ephemeris | Orbit Diagram | Orbital Elements | Mission Design | Physical Parameters | Discovery Circumstances ]

Physical Parameter Table
Parameter Symbol Value Units Sigma Reference Notes
absolute magnitude H 17.0   n/a MPO419026  

410803 (2009 JP3)          Discovered 2009-Mar-31 by Mt. Lemmon Survey at Mount Lemmon
Reference: Last Updated: 2014-10-09

Alternate Designations
 2009 JP3 = 2012 BN105 
Ephemeris | Orbit Diagram | Orbital Elements | Mission Design | Physical Parameters | Discovery Circumstances ]
ABOUT SSD CREDITS/AWARDS PRIVACY/COPYRIGHT GLOSSARY LINKS
FirstGov 2021-Jan-19 19:55 UT
(server date/time)  
NASA Home Page
Site Manager:   Ryan S. Park
Webmaster  Alan B. Chamberlin